ITY107 LPPT-LIRN

Flight info

Callsign ITY107
Flight time 2h 32m
Altitude 38000
Route ORVED DCT UREDI N870 PONEN/N0466F390 N870 SEROX/N0465F380 N870 BCN/N0464F390 DCT DIPES/N0463F380 N725 OSPOK/N0463F390 DCT NOLVI DCT ORKUM/N0462F400 DCT ELSAG DCT ALG DCT ROXAN DCT TURMO DCT ROTUN DCT PNZ
Aircraft A339/H-SADE1E2E3GHIJ3J5M1P2RWXY/LB2D1

Departure

Time 2026-05-06 20:49
Airport Lisbon Humberto Delgado Airport (LPPT)

Arrival

Time 2026-05-06 23:21
Airport Naples International Airport (LIRN)
Time Latitude Longitude Altitude Speed Heading
2026-05-06 20:21 38.76459 -9.13804 353 ft 0 kts 169°
2026-05-06 20:41 38.76465 -9.13806 353 ft 1 kts 169°
2026-05-06 20:41 38.76473 -9.13808 361 ft 1 kts 171°
2026-05-06 20:42 38.76481 -9.13810 360 ft 1 kts 177°
2026-05-06 20:42 38.76491 -9.13810 355 ft 2 kts 183°
2026-05-06 20:42 38.76503 -9.13810 356 ft 2 kts 190°
2026-05-06 20:42 38.76514 -9.13808 354 ft 1 kts 199°
2026-05-06 20:43 38.76519 -9.13808 357 ft 1 kts 213°
2026-05-06 20:43 38.76524 -9.13806 358 ft 1 kts 228°
2026-05-06 20:43 38.76529 -9.13803 362 ft 0 kts 245°
2026-05-06 20:43 38.76531 -9.13801 362 ft 0 kts 251°
2026-05-06 20:46 38.76525 -9.13824 359 ft 7 kts 251°
2026-05-06 20:46 38.76516 -9.13861 353 ft 2 kts 256°
2026-05-06 20:46 38.76525 -9.13915 355 ft 8 kts 300°
2026-05-06 20:47 38.76563 -9.13996 360 ft 11 kts 272°
2026-05-06 20:47 38.76519 -9.14072 354 ft 13 kts 231°
2026-05-06 20:47 38.76504 -9.14198 356 ft 18 kts 285°
2026-05-06 20:47 38.76559 -9.14369 356 ft 21 kts 303°
2026-05-06 20:48 38.76643 -9.14390 353 ft 12 kts 21°
2026-05-06 20:48 38.76748 -9.14338 355 ft 21 kts 21°
2026-05-06 20:48 38.77214 -9.14091 358 ft 126 kts 24°
2026-05-06 20:48 38.78246 -9.13501 674 ft 184 kts 22°
2026-05-06 20:49 38.79476 -9.12783 1290 ft 202 kts 19°
2026-05-06 20:49 38.80800 -9.12032 1989 ft 220 kts 21°
2026-05-06 20:49 38.82240 -9.11115 2684 ft 239 kts 24°
2026-05-06 20:49 38.83734 -9.10050 3450 ft 248 kts 27°
2026-05-06 20:50 38.85215 -9.08921 4292 ft 254 kts 28°
2026-05-06 20:50 38.86784 -9.07707 4906 ft 270 kts 30°
2026-05-06 20:50 38.88401 -9.06439 5764 ft 273 kts 33°
2026-05-06 20:50 38.89806 -9.04767 6624 ft 277 kts 53°
2026-05-06 20:51 38.90738 -9.02608 7532 ft 279 kts 66°
2026-05-06 20:51 38.91547 -9.00319 8375 ft 284 kts 66°
2026-05-06 20:51 38.92388 -8.97998 9263 ft 288 kts 65°
2026-05-06 20:51 38.93254 -8.95653 10169 ft 292 kts 65°
2026-05-06 20:52 38.94158 -8.93226 10589 ft 313 kts 65°
2026-05-06 20:52 38.95135 -8.90610 10876 ft 336 kts 65°
2026-05-06 20:52 38.96165 -8.87852 11372 ft 348 kts 65°
2026-05-06 20:52 38.97227 -8.85006 12049 ft 355 kts 65°
2026-05-06 20:53 38.98294 -8.82140 12888 ft 356 kts 65°
2026-05-06 20:53 38.99377 -8.79231 13531 ft 365 kts 65°
2026-05-06 20:53 39.00465 -8.76302 14212 ft 368 kts 65°
2026-05-06 20:53 39.01572 -8.73321 14905 ft 372 kts 65°
2026-05-06 20:54 39.02699 -8.70287 15536 ft 377 kts 65°
2026-05-06 20:54 39.03825 -8.67247 16309 ft 378 kts 65°
2026-05-06 20:54 39.04966 -8.64164 16875 ft 384 kts 65°
2026-05-06 20:54 39.06118 -8.61047 17564 ft 387 kts 65°
2026-05-06 20:55 39.07282 -8.57895 18204 ft 392 kts 65°
2026-05-06 20:55 39.08456 -8.54712 18829 ft 395 kts 65°
2026-05-06 20:55 39.09637 -8.51503 19417 ft 398 kts 65°
2026-05-06 20:55 39.10825 -8.48273 20023 ft 401 kts 65°
2026-05-06 20:56 39.12028 -8.45010 20616 ft 405 kts 65°
2026-05-06 20:56 39.13241 -8.41716 21230 ft 409 kts 65°
2026-05-06 20:56 39.14462 -8.38394 21831 ft 412 kts 66°
2026-05-06 20:56 39.15674 -8.35078 22431 ft 416 kts 66°
2026-05-06 20:57 39.16911 -8.31689 22998 ft 421 kts 66°
2026-05-06 20:57 39.18162 -8.28259 23580 ft 425 kts 66°
2026-05-06 20:57 39.19425 -8.24795 24070 ft 429 kts 66°
2026-05-06 20:57 39.20700 -8.21295 24526 ft 434 kts 66°
2026-05-06 20:58 39.21989 -8.17755 24986 ft 439 kts 66°
2026-05-06 20:58 39.23292 -8.14171 25461 ft 443 kts 66°
2026-05-06 20:58 39.24607 -8.10550 25924 ft 448 kts 66°
2026-05-06 20:58 39.25936 -8.06890 26373 ft 453 kts 66°
2026-05-06 20:59 39.27275 -8.03195 26834 ft 457 kts 66°
2026-05-06 20:59 39.28500 -7.99397 27250 ft 460 kts 72°
2026-05-06 20:59 39.29612 -7.95501 27682 ft 464 kts 71°
2026-05-06 20:59 39.30743 -7.91581 28113 ft 468 kts 71°
2026-05-06 21:00 39.31887 -7.87625 28615 ft 471 kts 72°
2026-05-06 21:00 39.33037 -7.83648 29018 ft 475 kts 72°
2026-05-06 21:00 39.34198 -7.79622 29415 ft 480 kts 72°
2026-05-06 21:00 39.35349 -7.75623 29817 ft 484 kts 72°
2026-05-06 21:01 39.36526 -7.71525 30197 ft 487 kts 72°
2026-05-06 21:01 39.37707 -7.67405 30605 ft 490 kts 72°
2026-05-06 21:01 39.39037 -7.63318 30962 ft 495 kts 65°
2026-05-06 21:01 39.40597 -7.59329 31326 ft 498 kts 65°
2026-05-06 21:02 39.42158 -7.55309 31697 ft 501 kts 65°
2026-05-06 21:02 39.43704 -7.51305 32067 ft 504 kts 65°
2026-05-06 21:02 39.45268 -7.47239 32430 ft 507 kts 65°
2026-05-06 21:02 39.46841 -7.43142 32724 ft 509 kts 65°
2026-05-06 21:03 39.48419 -7.39029 32999 ft 511 kts 65°
2026-05-06 21:03 39.50005 -7.34887 33241 ft 513 kts 65°
2026-05-06 21:03 39.51589 -7.30743 33450 ft 515 kts 65°
2026-05-06 21:03 39.53176 -7.26589 33703 ft 514 kts 65°
2026-05-06 21:04 39.54759 -7.22438 33953 ft 514 kts 65°
2026-05-06 21:04 39.56343 -7.18280 34206 ft 513 kts 64°
2026-05-06 21:04 39.57920 -7.14134 34444 ft 512 kts 64°
2026-05-06 21:04 39.59495 -7.09985 34704 ft 512 kts 64°
2026-05-06 21:05 39.61062 -7.05852 34961 ft 511 kts 64°
2026-05-06 21:05 39.62628 -7.01715 35203 ft 510 kts 64°
2026-05-06 21:05 39.64192 -6.97580 35441 ft 510 kts 64°
2026-05-06 21:05 39.65752 -6.93447 35674 ft 509 kts 64°
2026-05-06 21:06 39.67291 -6.89365 35927 ft 508 kts 64°
2026-05-06 21:06 39.68841 -6.85248 36184 ft 508 kts 64°
2026-05-06 21:06 39.70388 -6.81135 36392 ft 507 kts 64°
2026-05-06 21:06 39.71940 -6.77000 36637 ft 507 kts 64°
2026-05-06 21:07 39.73480 -6.72890 36881 ft 506 kts 64°
2026-05-06 21:07 39.75020 -6.68777 37101 ft 506 kts 64°
2026-05-06 21:07 39.76556 -6.64667 37345 ft 505 kts 64°
2026-05-06 21:07 39.78093 -6.60552 37586 ft 505 kts 64°
2026-05-06 21:08 39.79623 -6.56450 37820 ft 504 kts 64°
2026-05-06 21:08 39.82677 -6.48250 37856 ft 503 kts 64°
2026-05-06 21:09 39.85699 -6.40107 37874 ft 503 kts 64°
2026-05-06 21:09 39.88492 -6.31751 37862 ft 503 kts 66°
2026-05-06 21:10 39.91286 -6.23401 37865 ft 503 kts 66°
2026-05-06 21:10 39.94070 -6.15039 37866 ft 503 kts 67°
2026-05-06 21:11 39.96848 -6.06649 37874 ft 503 kts 67°
2026-05-06 21:11 39.99609 -5.98279 37878 ft 503 kts 67°
2026-05-06 21:12 40.02350 -5.89944 37883 ft 503 kts 67°
2026-05-06 21:12 40.05104 -5.81550 37874 ft 503 kts 67°
2026-05-06 21:13 40.07852 -5.73143 37885 ft 503 kts 67°
2026-05-06 21:13 40.10590 -5.64742 37890 ft 503 kts 67°
2026-05-06 21:14 40.13329 -5.56318 37898 ft 504 kts 67°
2026-05-06 21:14 40.16067 -5.47869 37903 ft 504 kts 67°
2026-05-06 21:15 40.18794 -5.39425 37904 ft 504 kts 67°
2026-05-06 21:15 40.21516 -5.30972 37908 ft 504 kts 67°
2026-05-06 21:16 40.24230 -5.22514 37920 ft 504 kts 67°
2026-05-06 21:16 40.26925 -5.14099 37919 ft 504 kts 67°
2026-05-06 21:17 40.29628 -5.05629 37918 ft 504 kts 67°
2026-05-06 21:17 40.32324 -4.97151 37914 ft 504 kts 67°
2026-05-06 21:18 40.35017 -4.88660 37916 ft 504 kts 67°
2026-05-06 21:18 40.37703 -4.80163 37940 ft 504 kts 67°
2026-05-06 21:19 40.40366 -4.71715 37914 ft 504 kts 68°
2026-05-06 21:19 40.43042 -4.63202 37912 ft 504 kts 68°
2026-05-06 21:20 40.45708 -4.54681 37919 ft 504 kts 67°
2026-05-06 21:20 40.48371 -4.46151 37923 ft 504 kts 68°
2026-05-06 21:21 40.51025 -4.37625 37924 ft 504 kts 68°
2026-05-06 21:21 40.53677 -4.29074 37921 ft 505 kts 68°
2026-05-06 21:22 40.55873 -4.21974 37921 ft 505 kts 68°
2026-05-06 21:22 40.58514 -4.13411 37927 ft 505 kts 68°
2026-05-06 21:23 40.61125 -4.04917 37934 ft 505 kts 68°
2026-05-06 21:23 40.63762 -3.96311 37933 ft 505 kts 68°
2026-05-06 21:24 40.66383 -3.87732 37931 ft 505 kts 68°
2026-05-06 21:24 40.68998 -3.79144 37935 ft 505 kts 68°
2026-05-06 21:25 40.71606 -3.70552 37929 ft 505 kts 68°
2026-05-06 21:25 40.74204 -3.61964 37930 ft 504 kts 68°
2026-05-06 21:26 40.76797 -3.53367 37931 ft 504 kts 68°
2026-05-06 21:26 40.79369 -3.44811 37935 ft 505 kts 68°
2026-05-06 21:27 40.81950 -3.36197 37933 ft 505 kts 68°
2026-05-06 21:27 40.84525 -3.27573 37936 ft 505 kts 68°
2026-05-06 21:28 40.86567 -3.18718 37941 ft 504 kts 76°
2026-05-06 21:28 40.88330 -3.09735 37936 ft 505 kts 76°
2026-05-06 21:29 40.90106 -3.00746 37942 ft 505 kts 76°
2026-05-06 21:29 40.91858 -2.91807 37937 ft 505 kts 76°
2026-05-06 21:30 40.93609 -2.82812 37941 ft 505 kts 76°
2026-05-06 21:30 40.95352 -2.73822 37946 ft 505 kts 76°
2026-05-06 21:31 40.97092 -2.64816 37943 ft 505 kts 76°
2026-05-06 21:31 40.98824 -2.55809 37957 ft 505 kts 76°
2026-05-06 21:32 41.00549 -2.46787 37960 ft 506 kts 76°
2026-05-06 21:32 41.03125 -2.33233 37970 ft 506 kts 76°
2026-05-06 21:33 41.04838 -2.24180 37965 ft 507 kts 77°
2026-05-06 21:33 41.06548 -2.15099 37969 ft 508 kts 77°
2026-05-06 21:34 41.08240 -2.06057 37987 ft 509 kts 77°
2026-05-06 21:34 41.09938 -1.96947 37994 ft 509 kts 77°
2026-05-06 21:35 41.11629 -1.87829 37985 ft 509 kts 77°
2026-05-06 21:35 41.13315 -1.78694 38000 ft 509 kts 77°
2026-05-06 21:36 41.14992 -1.69568 38002 ft 509 kts 77°
2026-05-06 21:36 41.16661 -1.60436 38002 ft 509 kts 77°
2026-05-06 21:37 41.18323 -1.51305 38002 ft 509 kts 77°
2026-05-06 21:37 41.19971 -1.42206 37997 ft 510 kts 77°
2026-05-06 21:38 41.21625 -1.33025 38003 ft 511 kts 77°
2026-05-06 21:38 41.23267 -1.23865 38005 ft 511 kts 77°
2026-05-06 21:39 41.24907 -1.14671 38006 ft 511 kts 77°
2026-05-06 21:39 41.26541 -1.05466 37992 ft 512 kts 77°
2026-05-06 21:40 41.28169 -0.96251 37993 ft 512 kts 77°
2026-05-06 21:40 41.29790 -0.87026 37990 ft 512 kts 77°
2026-05-06 21:41 41.31405 -0.77792 37991 ft 512 kts 77°
2026-05-06 21:41 41.33004 -0.68599 37981 ft 513 kts 78°
2026-05-06 21:42 41.34595 -0.59327 37974 ft 513 kts 79°
2026-05-06 21:42 41.35365 -0.49912 37977 ft 511 kts 90°
2026-05-06 21:43 41.35284 -0.40470 37974 ft 510 kts 92°
2026-05-06 21:43 41.35219 -0.31075 37975 ft 510 kts 92°
2026-05-06 21:44 41.35143 -0.21622 37977 ft 510 kts 92°
2026-05-06 21:44 41.35055 -0.12185 37976 ft 510 kts 92°
2026-05-06 21:45 41.34958 -0.02741 37975 ft 510 kts 92°
2026-05-06 21:45 41.34854 0.06702 37972 ft 510 kts 92°
2026-05-06 21:46 41.34744 0.16149 37947 ft 510 kts 93°
2026-05-06 21:46 41.34625 0.25598 37964 ft 511 kts 93°
2026-05-06 21:47 41.34497 0.35016 37959 ft 512 kts 93°
2026-05-06 21:47 41.34361 0.44484 37963 ft 512 kts 93°
2026-05-06 21:48 41.34218 0.53962 37965 ft 512 kts 93°
2026-05-06 21:48 41.34067 0.63439 37969 ft 512 kts 93°
2026-05-06 21:49 41.33908 0.72923 37972 ft 512 kts 93°
2026-05-06 21:49 41.33742 0.82401 37969 ft 512 kts 94°
2026-05-06 21:50 41.33568 0.91824 37974 ft 512 kts 94°
2026-05-06 21:50 41.33384 1.01309 37987 ft 513 kts 94°
2026-05-06 21:51 41.33193 1.10803 37993 ft 512 kts 94°
2026-05-06 21:51 41.32996 1.20283 37984 ft 512 kts 94°
2026-05-06 21:52 41.32790 1.29770 37986 ft 513 kts 94°
2026-05-06 21:52 41.32578 1.39190 37990 ft 513 kts 94°
2026-05-06 21:53 41.32357 1.48675 37990 ft 513 kts 94°
2026-05-06 21:53 41.32127 1.58172 37977 ft 514 kts 94°
2026-05-06 21:54 41.31889 1.67686 37987 ft 515 kts 94°
2026-05-06 21:54 41.31643 1.77211 37992 ft 515 kts 94°
2026-05-06 21:55 41.31390 1.86744 37997 ft 516 kts 94°
2026-05-06 21:55 41.31128 1.96282 37985 ft 517 kts 95°
2026-05-06 21:56 41.30859 2.05860 37991 ft 517 kts 95°
2026-05-06 21:56 41.30009 2.15257 37991 ft 513 kts 105°
2026-05-06 21:57 41.28453 2.24503 37994 ft 513 kts 106°
2026-05-06 21:57 41.26923 2.33768 37992 ft 513 kts 106°
2026-05-06 21:58 41.25385 2.43030 37995 ft 513 kts 106°
2026-05-06 21:58 41.23875 2.52065 37993 ft 513 kts 106°
2026-05-06 21:59 41.22319 2.61324 37991 ft 513 kts 106°
2026-05-06 21:59 41.20756 2.70581 37984 ft 513 kts 107°
2026-05-06 22:00 41.19186 2.79825 37989 ft 514 kts 107°
2026-05-06 22:00 41.17615 2.89025 37991 ft 514 kts 107°
2026-05-06 22:01 41.16027 2.98278 37993 ft 514 kts 107°
2026-05-06 22:01 41.14432 3.07528 37993 ft 514 kts 107°
2026-05-06 22:02 41.12831 3.16765 37990 ft 514 kts 107°
2026-05-06 22:02 41.11222 3.26000 37993 ft 513 kts 107°
2026-05-06 22:03 41.09615 3.35178 37993 ft 513 kts 107°
2026-05-06 22:03 41.07993 3.44394 37965 ft 513 kts 107°
2026-05-06 22:04 41.06365 3.53615 37989 ft 514 kts 107°
2026-05-06 22:04 41.04727 3.62831 37990 ft 514 kts 107°
2026-05-06 22:05 41.03081 3.72041 37991 ft 514 kts 107°
2026-05-06 22:05 41.01427 3.81251 37969 ft 514 kts 108°
2026-05-06 22:06 40.99765 3.90463 38000 ft 514 kts 108°
2026-05-06 22:06 40.98106 3.99606 37999 ft 514 kts 108°
2026-05-06 22:07 40.96430 4.08799 37994 ft 514 kts 108°
2026-05-06 22:07 40.94748 4.17984 37999 ft 514 kts 108°
2026-05-06 22:08 40.93056 4.27181 37986 ft 514 kts 108°
2026-05-06 22:08 40.91357 4.36365 37999 ft 514 kts 108°
2026-05-06 22:09 40.89649 4.45556 37997 ft 515 kts 108°
2026-05-06 22:09 40.87934 4.54742 38000 ft 515 kts 108°
2026-05-06 22:10 40.86212 4.63924 37997 ft 515 kts 108°
2026-05-06 22:10 40.85074 4.73258 37991 ft 520 kts 100°
2026-05-06 22:11 40.84219 4.82731 37994 ft 520 kts 101°
2026-05-06 22:11 40.83337 4.92210 37997 ft 520 kts 101°
2026-05-06 22:12 40.82597 5.00082 37995 ft 520 kts 101°
2026-05-06 22:12 40.81698 5.09555 37996 ft 520 kts 101°
2026-05-06 22:13 40.80792 5.19031 37997 ft 520 kts 101°
2026-05-06 22:13 40.79879 5.28493 37996 ft 520 kts 101°
2026-05-06 22:14 40.78958 5.37958 37992 ft 519 kts 101°
2026-05-06 22:14 40.78029 5.47414 37994 ft 519 kts 101°
2026-05-06 22:15 40.77094 5.56864 37995 ft 519 kts 101°
2026-05-06 22:15 40.76150 5.66314 37997 ft 520 kts 101°
2026-05-06 22:16 40.75205 5.75704 37995 ft 519 kts 101°
2026-05-06 22:16 40.74245 5.85157 37998 ft 519 kts 101°
2026-05-06 22:17 40.73278 5.94608 37999 ft 519 kts 101°
2026-05-06 22:17 40.72301 6.04052 37999 ft 519 kts 102°
2026-05-06 22:18 40.71316 6.13497 37992 ft 519 kts 102°
2026-05-06 22:18 40.70324 6.22932 37995 ft 519 kts 102°
2026-05-06 22:19 40.69326 6.32360 37995 ft 520 kts 102°
2026-05-06 22:19 40.68326 6.41722 37996 ft 520 kts 102°
2026-05-06 22:20 40.67311 6.51145 38000 ft 519 kts 102°
2026-05-06 22:20 40.66292 6.60542 37997 ft 518 kts 102°
2026-05-06 22:21 40.65265 6.69933 37998 ft 518 kts 102°
2026-05-06 22:21 40.64231 6.79319 37997 ft 518 kts 102°
2026-05-06 22:22 40.63190 6.88695 38001 ft 516 kts 102°
2026-05-06 22:22 40.62145 6.98040 37998 ft 516 kts 102°
2026-05-06 22:23 40.61092 7.07383 37995 ft 515 kts 102°
2026-05-06 22:23 40.60033 7.16710 37993 ft 515 kts 102°
2026-05-06 22:24 40.58973 7.25971 37993 ft 515 kts 102°
2026-05-06 22:24 40.57901 7.35282 37993 ft 515 kts 102°
2026-05-06 22:25 40.56864 7.44605 37990 ft 516 kts 99°
2026-05-06 22:25 40.56868 7.54090 37990 ft 521 kts 86°
2026-05-06 22:26 40.57719 7.63565 37982 ft 522 kts 85°
2026-05-06 22:26 40.58541 7.73062 37989 ft 523 kts 85°
2026-05-06 22:27 40.59349 7.82574 37990 ft 523 kts 85°
2026-05-06 22:27 40.60145 7.92031 37994 ft 523 kts 85°
2026-05-06 22:28 40.60939 8.01556 37995 ft 523 kts 85°
2026-05-06 22:28 40.61728 8.11079 37995 ft 523 kts 85°
2026-05-06 22:29 40.62512 8.20614 38000 ft 523 kts 86°
2026-05-06 22:29 40.63281 8.30132 37996 ft 523 kts 86°
2026-05-06 22:30 40.64033 8.39581 37992 ft 519 kts 86°
2026-05-06 22:30 40.64784 8.49039 38003 ft 519 kts 86°
2026-05-06 22:31 40.65527 8.58519 38002 ft 519 kts 86°
2026-05-06 22:31 40.66260 8.67983 38001 ft 519 kts 86°
2026-05-06 22:32 40.66983 8.77436 37996 ft 518 kts 86°
2026-05-06 22:32 40.67695 8.86824 38001 ft 518 kts 86°
2026-05-06 22:33 40.68404 8.96276 38003 ft 518 kts 86°
2026-05-06 22:33 40.69104 9.05722 38007 ft 518 kts 86°
2026-05-06 22:34 40.69797 9.15189 38007 ft 518 kts 86°
2026-05-06 22:34 40.70481 9.24628 37999 ft 518 kts 86°
2026-05-06 22:35 40.71158 9.34078 37997 ft 517 kts 86°
2026-05-06 22:35 40.71824 9.43468 37991 ft 517 kts 86°
2026-05-06 22:36 40.72483 9.52895 37999 ft 516 kts 86°
2026-05-06 22:36 40.73134 9.62323 38007 ft 516 kts 87°
2026-05-06 22:37 40.73777 9.71736 37991 ft 515 kts 87°
2026-05-06 22:37 40.74413 9.81161 37987 ft 515 kts 87°
2026-05-06 22:38 40.75039 9.90555 37985 ft 514 kts 87°
2026-05-06 22:38 40.75654 9.99887 37982 ft 513 kts 87°
2026-05-06 22:39 40.76254 10.09112 37982 ft 513 kts 87°
2026-05-06 22:39 40.76856 10.18492 37984 ft 513 kts 87°
2026-05-06 22:40 40.77450 10.27867 37995 ft 511 kts 87°
2026-05-06 22:40 40.78035 10.37209 37991 ft 511 kts 87°
2026-05-06 22:41 40.78895 10.51181 37988 ft 510 kts 87°
2026-05-06 22:42 40.79461 10.60526 37995 ft 509 kts 87°
2026-05-06 22:42 40.80018 10.69847 37989 ft 509 kts 87°
2026-05-06 22:43 40.80567 10.79173 37990 ft 509 kts 87°
2026-05-06 22:43 40.81105 10.88425 37990 ft 509 kts 88°
2026-05-06 22:44 40.81639 10.97751 37995 ft 509 kts 88°
2026-05-06 22:44 40.82165 11.07067 37999 ft 509 kts 88°
2026-05-06 22:45 40.82686 11.16405 37996 ft 509 kts 88°
2026-05-06 22:45 40.83199 11.25720 37995 ft 509 kts 88°
2026-05-06 22:46 40.83685 11.34981 37998 ft 508 kts 88°
2026-05-06 22:46 40.84167 11.44289 37996 ft 508 kts 88°
2026-05-06 22:47 40.84644 11.53606 37999 ft 507 kts 88°
2026-05-06 22:47 40.85113 11.62909 37999 ft 507 kts 88°
2026-05-06 22:48 40.85576 11.72207 37997 ft 507 kts 88°
2026-05-06 22:48 40.86030 11.81511 38002 ft 507 kts 88°
2026-05-06 22:49 40.86478 11.90749 38002 ft 507 kts 88°
2026-05-06 22:49 40.86926 12.00063 38003 ft 507 kts 89°
2026-05-06 22:50 40.87367 12.09373 38004 ft 507 kts 89°
2026-05-06 22:50 40.87798 12.18671 38004 ft 507 kts 89°
2026-05-06 22:51 40.88221 12.27968 38011 ft 507 kts 89°
2026-05-06 22:51 40.88644 12.37271 38013 ft 507 kts 89°
2026-05-06 22:52 40.89072 12.46571 38016 ft 507 kts 89°
2026-05-06 22:52 40.89490 12.55876 38018 ft 507 kts 89°
2026-05-06 22:53 40.89899 12.65159 37784 ft 504 kts 89°
2026-05-06 22:53 40.90098 12.69716 37103 ft 503 kts 89°
2026-05-06 22:53 40.90298 12.74336 36117 ft 502 kts 90°
2026-05-06 22:53 40.90496 12.78947 34921 ft 503 kts 90°
2026-05-06 22:54 40.90694 12.83584 33371 ft 507 kts 91°
2026-05-06 22:54 40.90886 12.88252 31608 ft 511 kts 91°
2026-05-06 22:54 40.90940 12.92944 29879 ft 509 kts 97°
2026-05-06 22:54 40.90584 12.97562 28384 ft 500 kts 103°
2026-05-06 22:55 40.89858 13.02011 27254 ft 491 kts 109°
2026-05-06 22:55 40.88918 13.06297 26468 ft 479 kts 110°
2026-05-06 22:55 40.88021 13.10470 25978 ft 464 kts 110°
2026-05-06 22:55 40.87162 13.14501 25704 ft 451 kts 110°
2026-05-06 22:56 40.86312 13.18456 25462 ft 454 kts 110°
2026-05-06 22:56 40.85445 13.22469 25215 ft 453 kts 110°
2026-05-06 22:56 40.84581 13.26464 24666 ft 451 kts 110°
2026-05-06 22:56 40.83718 13.30442 23986 ft 449 kts 110°
2026-05-06 22:57 40.82862 13.34387 23255 ft 442 kts 109°
2026-05-06 22:57 40.82023 13.38252 22602 ft 431 kts 110°
2026-05-06 22:57 40.81220 13.41948 21964 ft 420 kts 110°
2026-05-06 22:57 40.80416 13.45637 21322 ft 409 kts 110°
2026-05-06 22:58 40.79637 13.49202 20709 ft 399 kts 110°
2026-05-06 22:58 40.78854 13.52770 20107 ft 420 kts 111°
2026-05-06 22:58 40.78004 13.56588 19757 ft 439 kts 111°
2026-05-06 22:58 40.77152 13.60451 19336 ft 439 kts 111°
2026-05-06 22:59 40.76299 13.64333 18360 ft 444 kts 111°
2026-05-06 22:59 40.75470 13.68251 17261 ft 439 kts 107°
2026-05-06 22:59 40.75233 13.72190 16558 ft 421 kts 90°
2026-05-06 22:59 40.75807 13.75835 16197 ft 394 kts 70°
2026-05-06 23:00 40.77064 13.78899 15920 ft 366 kts 55°
2026-05-06 23:00 40.78013 13.80675 15754 ft 349 kts 53°
2026-05-06 23:00 40.79857 13.84010 15140 ft 329 kts 53°
2026-05-06 23:00 40.80718 13.85635 14793 ft 322 kts 54°
2026-05-06 23:01 40.81937 13.88050 14540 ft 314 kts 56°
2026-05-06 23:01 40.83503 13.91281 14407 ft 315 kts 57°
2026-05-06 23:01 40.84288 13.92935 14344 ft 314 kts 57°
2026-05-06 23:01 40.85438 13.95392 14248 ft 314 kts 58°
2026-05-06 23:02 40.86544 13.97833 14146 ft 313 kts 58°
2026-05-06 23:02 40.87658 14.00312 14058 ft 313 kts 58°
2026-05-06 23:02 40.88769 14.02778 13959 ft 312 kts 58°
2026-05-06 23:02 40.89882 14.05244 13849 ft 312 kts 58°
2026-05-06 23:03 40.90994 14.07700 13771 ft 311 kts 58°
2026-05-06 23:03 40.92101 14.10135 13667 ft 307 kts 58°
2026-05-06 23:03 40.93202 14.12564 13569 ft 309 kts 59°
2026-05-06 23:03 40.94301 14.14997 13450 ft 307 kts 59°
2026-05-06 23:04 40.95396 14.17421 13246 ft 305 kts 59°
2026-05-06 23:04 40.96482 14.19828 13043 ft 304 kts 59°
2026-05-06 23:04 40.97564 14.22227 12839 ft 303 kts 59°
2026-05-06 23:04 40.98639 14.24612 12648 ft 301 kts 59°
2026-05-06 23:05 40.99696 14.26959 12446 ft 300 kts 58°
2026-05-06 23:05 41.00761 14.29323 12248 ft 298 kts 58°
2026-05-06 23:05 41.01822 14.31679 12045 ft 297 kts 58°
2026-05-06 23:05 41.02884 14.34029 11860 ft 296 kts 58°
2026-05-06 23:06 41.03937 14.36362 11668 ft 295 kts 58°
2026-05-06 23:06 41.04989 14.38693 11466 ft 295 kts 58°
2026-05-06 23:06 41.06040 14.41021 11269 ft 293 kts 58°
2026-05-06 23:06 41.07079 14.43327 11071 ft 291 kts 58°
2026-05-06 23:07 41.08120 14.45621 10897 ft 289 kts 58°
2026-05-06 23:07 41.09183 14.47874 10685 ft 288 kts 57°
2026-05-06 23:07 41.10254 14.50111 10505 ft 287 kts 57°
2026-05-06 23:07 41.11324 14.52346 10312 ft 286 kts 57°
2026-05-06 23:08 41.12372 14.54543 10140 ft 285 kts 57°
2026-05-06 23:08 41.13437 14.56788 9923 ft 283 kts 57°
2026-05-06 23:08 41.14465 14.58960 9734 ft 282 kts 57°
2026-05-06 23:08 41.15505 14.61168 9547 ft 282 kts 57°
2026-05-06 23:09 41.16529 14.63375 9357 ft 278 kts 58°
2026-05-06 23:09 41.17537 14.65558 9180 ft 279 kts 58°
2026-05-06 23:09 41.18550 14.67749 9003 ft 276 kts 58°
2026-05-06 23:09 41.19527 14.69864 8880 ft 261 kts 58°
2026-05-06 23:10 41.20378 14.71907 8723 ft 246 kts 71°
2026-05-06 23:10 41.20564 14.74073 8537 ft 231 kts 102°
2026-05-06 23:10 41.19977 14.75958 8313 ft 215 kts 135°
2026-05-06 23:10 41.18808 14.77119 8192 ft 211 kts 160°
2026-05-06 23:11 41.17509 14.77966 8049 ft 204 kts 160°
2026-05-06 23:11 41.16246 14.78825 7922 ft 209 kts 158°
2026-05-06 23:11 41.14990 14.79747 7788 ft 204 kts 159°
2026-05-06 23:11 41.13643 14.80144 7666 ft 197 kts 189°
2026-05-06 23:12 41.12411 14.79555 7529 ft 187 kts 218°
2026-05-06 23:12 41.11584 14.78237 7423 ft 188 kts 240°
2026-05-06 23:12 41.10951 14.76739 7288 ft 184 kts 240°
2026-05-06 23:12 41.10291 14.75240 7168 ft 190 kts 238°
2026-05-06 23:13 41.09607 14.73755 7035 ft 184 kts 238°
2026-05-06 23:13 41.08920 14.72291 6997 ft 190 kts 237°
2026-05-06 23:13 41.08231 14.70829 6995 ft 185 kts 237°
2026-05-06 23:13 41.07548 14.69387 7004 ft 188 kts 237°
2026-05-06 23:14 41.06855 14.67926 6992 ft 186 kts 237°
2026-05-06 23:14 41.06165 14.66469 6991 ft 187 kts 237°
2026-05-06 23:14 41.05474 14.65005 6939 ft 188 kts 237°
2026-05-06 23:14 41.04791 14.63548 6809 ft 185 kts 237°
2026-05-06 23:15 41.04117 14.62111 6586 ft 183 kts 237°
2026-05-06 23:15 41.03447 14.60676 6299 ft 183 kts 237°
2026-05-06 23:15 41.02776 14.59236 5989 ft 184 kts 237°
2026-05-06 23:15 41.02100 14.57788 5618 ft 185 kts 236°
2026-05-06 23:16 41.01441 14.56355 5408 ft 179 kts 236°
2026-05-06 23:16 41.00756 14.54897 5326 ft 190 kts 236°
2026-05-06 23:16 41.00066 14.53436 5242 ft 185 kts 236°
2026-05-06 23:16 40.99378 14.51982 4911 ft 188 kts 236°
2026-05-06 23:17 40.98704 14.50549 4837 ft 178 kts 236°
2026-05-06 23:17 40.98061 14.49175 4663 ft 175 kts 236°
2026-05-06 23:17 40.97415 14.47800 4369 ft 178 kts 236°
2026-05-06 23:17 40.96752 14.46391 4005 ft 183 kts 236°
2026-05-06 23:18 40.96082 14.44965 3652 ft 183 kts 236°
2026-05-06 23:18 40.95430 14.43571 3251 ft 175 kts 236°
2026-05-06 23:18 40.94791 14.42213 2793 ft 173 kts 236°
2026-05-06 23:18 40.94146 14.40853 2248 ft 177 kts 236°
2026-05-06 23:19 40.93521 14.39516 2025 ft 163 kts 236°
2026-05-06 23:19 40.92957 14.38322 1896 ft 142 kts 236°
2026-05-06 23:19 40.92446 14.37241 1717 ft 144 kts 235°
2026-05-06 23:19 40.91904 14.36119 1317 ft 146 kts 236°
2026-05-06 23:20 40.91380 14.34989 996 ft 141 kts 238°
2026-05-06 23:20 40.90879 14.33917 807 ft 140 kts 236°
2026-05-06 23:20 40.90360 14.32836 593 ft 136 kts 236°
2026-05-06 23:20 40.89864 14.31774 429 ft 141 kts 237°
2026-05-06 23:21 40.89369 14.30699 274 ft 132 kts 236°
2026-05-06 23:21 40.88863 14.29636 253 ft 129 kts 239°
2026-05-06 23:21 40.88461 14.28779 287 ft 79 kts 238°
2026-05-06 23:21 40.88275 14.28453 301 ft 33 kts 206°
2026-05-06 23:22 40.88131 14.28359 305 ft 0 kts 208°
2026-05-06 23:23 40.88110 14.28344 307 ft 9 kts 209°
2026-05-06 23:24 40.88058 14.28250 309 ft 17 kts 246°
2026-05-06 23:24 40.87995 14.28132 315 ft 14 kts 204°
2026-05-06 23:24 40.87945 14.28145 314 ft 6 kts 140°
2026-05-06 23:24 40.87938 14.28217 312 ft 11 kts 87°
2026-05-06 23:25 40.87948 14.28343 307 ft 17 kts 84°
2026-05-06 23:25 40.87990 14.28401 306 ft 6 kts 355°
2026-05-06 23:25 40.88016 14.28357 305 ft 7 kts 302°
2026-05-06 23:25 40.88031 14.28280 309 ft 10 kts 280°
2026-05-06 23:26 40.88033 14.28181 311 ft 11 kts 264°
2026-05-06 23:26 40.87991 14.28098 316 ft 11 kts 216°
2026-05-06 23:26 40.87923 14.28040 316 ft 12 kts 212°
2026-05-06 23:26 40.87887 14.28039 317 ft 3 kts 156°
2026-05-06 23:27 40.87858 14.28066 317 ft 7 kts 143°
2026-05-06 23:27 40.87839 14.28087 316 ft 2 kts 140°
2026-05-06 23:27 40.87838 14.28088 316 ft 0 kts 140°